Regional Weather Roundup
Issued by NWS

Home | Current Version | Previous Version | Graphics & Text | Print | Product List | Glossary On
Versions: 1 2 3 4 5 6 7 8 9 10 11 12 13 14 15 16 17 18 19 20 21 22 23 24 25 26 27 28 29 30 31 32 33 34 35 36 37 38 39 40 41 42 43 44 45 46 47 48 49 50
000
ASUS43 KLMK 222210
RWRKY
KENTUCKY REGIONAL WEATHER ROUNDUP
NATIONAL WEATHER SERVICE LOUISVILLE KY
600 PM EDT FRI SEP 22 2017

NOTE "FAIR" INDICATES FEW OR NO CLOUDS BELOW 12,000 FEET
WITH NO SIGNIFICANT WEATHER AND/OR OBSTRUCTIONS TO VISIBILITY.

KYZ001>023-026-027-061>063-070>075-222300-
WESTERN AND SOUTH CENTRAL KENTUCKY

CITY           SKY/WX    TMP DP  RH WIND       PRES   REMARKS
PADUCAH        SUNNY     90  64  42 E6        29.98F HX  91
HENDERSON      SUNNY     89  67  47 E8        30.01S HX  92
OWENSBORO      SUNNY     89  67  47 E10       30.01S HX  92
HOPKINSVILLE   NOT AVBL
BOWLING GREEN  SUNNY     86  69  56 E6        30.01F HX  90
GLASGOW        SUNNY     87  66  49 NE5       30.02F
$$

KYZ024-025-028>034-038-045-046-053-222300-
NORTH CENTRAL KENTUCKY

CITY           SKY/WX    TMP DP  RH WIND       PRES   REMARKS
LOUISVILLE/SDF MOSUNNY   89  65  44 E7        30.02S HX  91
LOUISVILLE/LOU SUNNY     89  66  46 NE3       30.03S HX  91
FORT KNOX      SUNNY     86  67  52 VRB3      30.02F
$$

KYZ035>037-039>044-047>052-055>060-089>105-222300-
NORTHEAST KENTUCKY

CITY           SKY/WX    TMP DP  RH WIND       PRES   REMARKS
LEXINGTON      MOSUNNY   84  65  52 NE7       30.06S
COVINGTON      MOSUNNY   87  69  54 E5        30.05S HX  91
FRANKFORT      MOSUNNY   85  64  49 E3        30.04S
$$

KYZ054-064>069-076>088-106>120-222300-
SOUTHEAST KENTUCKY

CITY           SKY/WX    TMP DP  RH WIND       PRES   REMARKS
JACKSON        MOSUNNY   80  64  58 CALM      30.08S
LONDON         SUNNY     84  63  49 NE6       30.06S
SOMERSET       SUNNY     82  63  51 E5        30.05S
MIDDLESBORO    SUNNY     84  67  57 N3        30.05R
MONTICELLO     PTCLDY    87  68  52 N14       30.05F HX  90
$$




USA.gov is the U.S. government's official web portal to all federal, state and local government web resources and services.